Hourly Data Report for August 06, 2003

SHERBROOKE A
QUEBEC

45°26'00.000" N
71°41'00.000" W
241.40 m
7028124
71610
YSC

Download Data

Hourly Data (August 2003)
Hourly Data Report for August 6, 2003
TIME
LST
Temp Definition
°C
Dew Point Definition
°C
Rel Hum Definition
%
Precip. Amount Definition
mm

Wind Dir Definition
10's deg

Wind Spd Definition
km/h
Visibility Definition
km
Stn Press Definition
kPa
Hmdx Definition


Wind Chill Definition


Weather Definition


00:00 20.2 19.2 94   10 11 15.0 98.21 27    
01:00 20.1 19.2 95   7 6 8.0 98.20 27   Rain
02:00 20.2 19.3 95   7 6 8.0 98.18 27   Rain
03:00 20.2 19.3 95   8 4 11.3 98.15 27   Drizzle
04:00 20.3 19.4 95   8 4 15.0 98.15 27   Rain
05:00 20.2 19.4 95   8 4 12.9 98.16 27   Rain
06:00 20.5 19.7 95   7 4 5.6 98.19 28   Rain
07:00 21.1 20.1 94   11 6 24.1 98.21 29   Mostly Cloudy
08:00 22.0 20.6 92   20 6 24.1 98.25 30   Rain Showers
09:00 23.3 20.6 85   19 9 24.1 98.26 31   Mostly Cloudy
10:00 23.6 20.7 84   23 6 24.1 98.26 32   Mostly Cloudy
11:00 23.3 19.8 81   23 11 19.3 98.26 31   Mostly Cloudy
12:00 25.4 20.0 72   25 9 24.1 98.23 33   Mostly Cloudy
13:00 26.2 20.2 70   10 6 24.1 98.18 34   Mostly Cloudy
14:00 21.2 19.8 92   16 11 6.4 98.21 29   Thunderstorms,Moderate Rain Showers, Fog
15:00 20.0 18.6 92   10 11 24.1 98.21 26   Rain Showers
16:00 20.1 18.9 93   5 7 19.3 98.17 27   Thunderstorms,Rain Showers
17:00 20.0 18.8 93   14 6 15.0 98.20 27    
18:00 20.5 19.2 92     0 15.0 98.24 27    
19:00 19.7 18.6 93   10 4 15.0 98.26      
20:00 19.4 18.6 95     0 15.0 98.33      
21:00 18.6 17.3 92     0 15.0 98.35      
22:00 18.5 17.5 94   16 4 15.0 98.37     Rain
23:00 18.5 17.5 94     0 15.0 98.38      

Notes on Data Quality.

Legend

  • E = Estimated
  • M = Missing
  • NA = Not Available*
  • [empty] = Indicates an unobserved value
Date modified: